Location: Killam
(52.7910°N, 111.8608°W)
Time: 12:35:54
(UTC+00:00)

CUBEBUG 2 - Pass Details

Date: 16 March 2026
Orbit: 548 x 627 km, 97.9° (Epoch: 14 April)

Event Time Altitude Azimuth Distance (km) Brightness Sun altitude
Rises 10:04:55 0° 14° (NNE) 2,894 ? -30.3°
Reaches altitude 10° 10:07:06 10° 14° (NNE) 1,994 ? -30.1°
Enters shadow 10:09:40 36° 13° (NNE) 1,003 ? -29.8°
